Eastsound, WA

9:14 PM PDT on April 01, 2015 (GMT -0700)
Friday Harbor | | Change Station
CLOSE
Current Station
Airport
Location: Friday Harbor,
Elevation: 108 ft
Nearby Weather Stations

Elev 108 ft 48.52 °N, 123.02 °W | Updated 21 minutes ago

Clear
Clear
42 °F
Feels Like 39 °F
N
5
Wind Variable Wind from West

Today
High -- | Low -- °F
--% Chance of Precip.
Yesterday
High -- | Low -- °F
Precip. -- in
6:49 AM 7:42 PM
Waxing Gibbous, 95% visible
Pressure 30.30 in
Visibility 10.0 miles
Clouds Clear
Windchill 39 °F
Dew Point 36 °F
Humidity 79%
Rainfall 0.00 in
Snow Depth Not available.
UV 0 out of 12
Pollen 5.70 out of 12
Air Quality Not available.
Flu Activity Not available.
METAR KFHR 020353Z AUTO 26004KT 10SM CLR 06/02 A3029 RMK AO2 SLP259 T00560022

More Conditions Fewer Conditions

Pressure 30.30 in
Visibility 10.0 miles
Clouds Clear
Windchill 39 °F
Dew Point 36 °F
Humidity 79%
Rainfall 0.00 in
Snow Depth Not available.
UV 0 out of 12
Pollen 5.70 out of 12
Air Quality Not available.
Flu Activity Not available.
METAR KFHR 020353Z AUTO 26004KT 10SM CLR 06/02 A3029 RMK AO2 SLP259 T00560022

More Conditions Fewer Conditions

10-Day Weather Forecast

Almanac

Astronomy

Apr. 01, 2015 Rise Set
Actual Time
Civil Twilight
Nautical Twilight
Astronomical Twilight
Moon
Length of Visible Light
Length of Day
Tomorrow will be .
, % of the Moon is Illuminated

Today's Extremes

State Highs State Lows

Community

WunderPhotos

Upload Photos

1,810,194 photos uploaded!

WunderBlogs® & News

Nearby

Air Quality

  Air Quality AQ Index Pollutant
Not available.

Snow Depth

Station Depth Elevation

Earthquake Activity

City Distance Mag. Time & Date
Minimum magnitude displayed is 2.5.

Coastal Water Temperatures

Place Temperature

Stations

Nearby Weather Stations

Station Location Temp. Windchill Dew Point Humidity Wind Precip. Elev Updated Type